Weather in Bolshevik

Russia / Moscow Oblast     54°54′12″N   37°21′39″E
temp.,
°C
wind,
m/s
gust,
m/s
humid.,
%
clouds,
%
prec.,
mm/h
press.,
hPa
HPBL,
m
25 february, thu
thu2500:00−12ssw3795100 0.1 1027281
03:00−9sw3895100 0.3 1025310
06:00−4wsw41295100 0.8 1020460
09:00+1wsw51398100 1.6 1016600
12:00+2w513100100 0.8 1014520
15:00+3wnw310100100 0.9 1015335
18:00+2w310100100 0.3 1016341
21:00+2wnw41099100 0.3 1017337
26 february, fri
fri2600:00+2w41199100 0.4 1015311
03:00+3w41299100 1.0 1015420
06:00+2wsw51298100 0.3 1012411
09:00+3wsw51398100 0.3 1011506
12:00+3wsw51399100 0.1 1008527
15:00+4w61597100 0.6 1006744
18:00+3w5149280 0.1 1005968
21:00+2wnw6148590 0.1 10061088
27 february, sat
sat2700:000w5148971 0.0 1006677
03:000w4139052 0.0 1006572
06:00+1w5119392 0.0 1004633
09:00+1wnw489796 0.1 1004519
12:00+1wnw3894100 0.1 1005642
15:00+1nw3892100 0.1 1006591
18:000nw399695 0.1 1008510
21:00−1nw399698 0.3 1010441
28 february, sun
sun2800:00−1nw4109690 0.3 1011510
03:00−2nnw4109495 0.8 1013635
06:00−3nnw41092100 0.2 1014607
09:00−3nnw4989100 0.3 1016572
12:00−1nnw478397 0.1 1017777
15:00−1nnw478199 0.1 1018881
18:00−2nnw3784100 0.1 1020590
21:00−3n3788100 0.1 1023574
1 march, mon
mon100:00−4n2588100 0.1 1025378
03:00−5n2592100 0.1 1026353
06:00−6nw2496100 0.0 1028123
09:00−6wnw239387 0.0 1029178
12:00−2w348165 0.0 1030604
15:00−1w368165 0.0 1029526
18:00−2w389184 0.0 1029353
21:00−2w3109491 0.0 1029398